• In Italy
  • List of Countries
  • For 7 days
  • Water Temperature
  • Satellite Maps
  • Weather Map
  • Weather Widgets
  • user-avatar
    Login

    Hourly Weather Bolshoy Abanur

    Today, 19 August, Sunday

    Time Temperature Precipitation Wind Pressure Humidity
    00:00 +13°C° 0 mm 1 mps 758 mmHg 85%
    01:00 +12°C° 0 mm 1 mps 758 mmHg 86%
    02:00 +12°C° 0 mm 1 mps 758 mmHg 87%
    03:00 +12°C° 0 mm 1 mps 758 mmHg 89%
    04:00 +12°C° 0 mm 1 mps 758 mmHg 87%
    05:00 +13°C° 0 mm 1 mps 758 mmHg 85%
    06:00 +12°C° 0 mm 0 mps 758 mmHg 83%
    07:00 +14°C° 0 mm 0 mps 758 mmHg 76%
    08:00 +17°C° 0 mm 0 mps 758 mmHg 68%
    09:00 +19°C° 0 mm 0 mps 758 mmHg 60%
    10:00 +22°C° 0 mm 1 mps 757 mmHg 56%
    11:00 +23°C° 0 mm 1 mps 757 mmHg 53%
    12:00 +24°C° 0 mm 1 mps 757 mmHg 49%
    13:00 +24°C° 0 mm 1 mps 756 mmHg 49%
    14:00 +24°C° 0 mm 1 mps 756 mmHg 49%
    15:00 +24°C° 0 mm 1 mps 756 mmHg 48%
    16:00 +23°C° 0 mm 1 mps 755 mmHg 53%
    17:00 +23°C° 0 mm 1 mps 755 mmHg 58%
    18:00 +22°C° 0 mm 1 mps 754 mmHg 62%
    19:00 +19°C° 0 mm 2 mps 754 mmHg 67%
    20:00 +17°C° 0 mm 2 mps 754 mmHg 72%
    21:00 +15°C° 0 mm 2 mps 754 mmHg 77%
    22:00 +15°C° 0 mm 2 mps 754 mmHg 79%
    23:00 +14°C° 0 mm 2 mps 754 mmHg 81%

    Tomorrow, 20 August, Monday

    Time Temperature Precipitation Wind Pressure Humidity
    00:00 +14°C° 0 mm 2 mps 753 mmHg 83%
    01:00 +14°C° 0 mm 2 mps 753 mmHg 83%
    02:00 +14°C° 0 mm 2 mps 753 mmHg 82%
    03:00 +12°C° 0 mm 3 mps 752 mmHg 82%
    04:00 +13°C° 0 mm 3 mps 752 mmHg 80%
    05:00 +13°C° 0 mm 3 mps 752 mmHg 78%
    06:00 +14°C° 0 mm 3 mps 752 mmHg 77%
    07:00 +17°C° 0 mm 3 mps 751 mmHg 73%
    08:00 +18°C° 0 mm 4 mps 751 mmHg 69%
    09:00 +20°C° 0 mm 4 mps 751 mmHg 66%
    10:00 +21°C° 0 mm 4 mps 751 mmHg 64%
    11:00 +23°C° 0 mm 4 mps 751 mmHg 63%
    12:00 +25°C° 0 mm 5 mps 750 mmHg 62%
    13:00 +23°C° 0.4 mm 5 mps 750 mmHg 67%
    14:00 +23°C° 0.4 mm 4 mps 750 mmHg 71%
    15:00 +23°C° 0.4 mm 4 mps 749 mmHg 76%
    16:00 +22°C° 0.1 mm 3 mps 749 mmHg 77%
    17:00 +22°C° 0.1 mm 3 mps 749 mmHg 79%
    18:00 +21°C° 0.1 mm 2 mps 749 mmHg 80%
    19:00 +20°C° 0 mm 2 mps 749 mmHg 84%
    20:00 +19°C° 0 mm 2 mps 749 mmHg 87%
    21:00 +17°C° 0 mm 2 mps 749 mmHg 90%
    22:00 +17°C° 0 mm 2 mps 749 mmHg 91%
    23:00 +16°C° 0 mm 1 mps 749 mmHg 92%

    Day after tomorrow, 21 August, Tuesday

    Time Temperature Precipitation Wind Pressure Humidity
    00:00 +16°C° 0 mm 1 mps 749 mmHg 93%
    01:00 +16°C° 0 mm 1 mps 749 mmHg 94%
    02:00 +15°C° 0 mm 1 mps 749 mmHg 94%
    03:00 +15°C° 0 mm 1 mps 749 mmHg 95%
    04:00 +16°C° 0 mm 2 mps 749 mmHg 94%
    05:00 +16°C° 0 mm 2 mps 748 mmHg 94%
    06:00 +16°C° 0 mm 2 mps 748 mmHg 93%
    07:00 +18°C° 0 mm 2 mps 748 mmHg 87%
    08:00 +20°C° 0 mm 2 mps 748 mmHg 82%
    09:00 +22°C° 0 mm 3 mps 748 mmHg 76%
    10:00 +22°C° 1 mm 3 mps 747 mmHg 76%
    11:00 +23°C° 1 mm 4 mps 747 mmHg 76%
    12:00 +23°C° 1 mm 4 mps 747 mmHg 76%
    13:00 +25°C° 0.5 mm 5 mps 746 mmHg 72%
    14:00 +25°C° 0.5 mm 5 mps 745 mmHg 69%
    15:00 +26°C° 0.5 mm 5 mps 745 mmHg 65%
    16:00 +25°C° 0.1 mm 5 mps 744 mmHg 67%
    17:00 +25°C° 0.1 mm 5 mps 744 mmHg 68%
    18:00 +23°C° 0.1 mm 4 mps 744 mmHg 70%
    19:00 +22°C° 0.2 mm 4 mps 743 mmHg 74%
    20:00 +21°C° 0.2 mm 4 mps 743 mmHg 79%
    21:00 +20°C° 0.2 mm 4 mps 743 mmHg 84%
    22:00 +19°C° 0.9 mm 4 mps 743 mmHg 87%
    23:00 +18°C° 0.9 mm 4 mps 743 mmHg 90%

    22 August, Wednesday

    Time Temperature Precipitation Wind Pressure Humidity
    00:00 +18°C° 0.9 mm 4 mps 743 mmHg 93%
    01:00 +15°C° 0.2 mm 4 mps 743 mmHg 92%
    02:00 +14°C° 0.2 mm 4 mps 743 mmHg 91%
    03:00 +13°C° 0.2 mm 3 mps 743 mmHg 90%
    04:00 +13°C° 0 mm 3 mps 744 mmHg 90%
    05:00 +12°C° 0 mm 3 mps 744 mmHg 90%
    06:00 +12°C° 0 mm 3 mps 744 mmHg 90%
    07:00 +13°C° 0 mm 4 mps 745 mmHg 85%
    08:00 +14°C° 0 mm 4 mps 745 mmHg 79%
    09:00 +15°C° 0 mm 4 mps 745 mmHg 73%
    10:00 +16°C° 0.1 mm 5 mps 745 mmHg 70%
    11:00 +16°C° 0.1 mm 5 mps 746 mmHg 67%
    12:00 +17°C° 0.1 mm 5 mps 746 mmHg 64%
    13:00 +16°C° 0.2 mm 5 mps 746 mmHg 64%
    14:00 +16°C° 0.2 mm 5 mps 746 mmHg 64%
    15:00 +16°C° 0.2 mm 5 mps 747 mmHg 64%
    16:00 +15°C° 0.1 mm 4 mps 747 mmHg 67%
    17:00 +15°C° 0.1 mm 4 mps 748 mmHg 70%
    18:00 +14°C° 0.1 mm 3 mps 748 mmHg 73%
    19:00 +13°C° 0.1 mm 3 mps 749 mmHg 79%
    20:00 +12°C° 0.1 mm 3 mps 749 mmHg 85%
    21:00 +11°C° 0.1 mm 3 mps 750 mmHg 90%
    22:00 +10°C° 0 mm 2 mps 750 mmHg 91%
    23:00 +10°C° 0 mm 2 mps 750 mmHg 92%

    23 August, Thursday

    Time Temperature Precipitation Wind Pressure Humidity
    00:00 +10°C° 0 mm 2 mps 751 mmHg 92%
    01:00 +9°C° 0 mm 3 mps 751 mmHg 93%
    02:00 +9°C° 0 mm 3 mps 752 mmHg 93%
    03:00 +9°C° 0 mm 3 mps 752 mmHg 94%
    04:00 +9°C° 0 mm 3 mps 752 mmHg 92%
    05:00 +8°C° 0 mm 3 mps 753 mmHg 91%
    06:00 +8°C° 0 mm 3 mps 753 mmHg 89%
    07:00 +10°C° 0 mm 4 mps 754 mmHg 79%
    08:00 +12°C° 0 mm 4 mps 754 mmHg 70%
    09:00 +13°C° 0 mm 4 mps 754 mmHg 60%
    10:00 +15°C° 0 mm 5 mps 754 mmHg 55%
    11:00 +16°C° 0 mm 5 mps 754 mmHg 51%
    12:00 +17°C° 0 mm 5 mps 754 mmHg 47%
    13:00 +17°C° 0 mm 5 mps 754 mmHg 46%
    14:00 +17°C° 0 mm 5 mps 754 mmHg 45%
    15:00 +19°C° 0 mm 4 mps 754 mmHg 44%
    16:00 +18°C° 0 mm 4 mps 754 mmHg 50%
    17:00 +17°C° 0 mm 3 mps 754 mmHg 55%
    18:00 +17°C° 0 mm 2 mps 754 mmHg 61%
    19:00 +15°C° 0 mm 2 mps 754 mmHg 65%
    20:00 +14°C° 0 mm 2 mps 754 mmHg 68%
    21:00 +13°C° 0 mm 2 mps 754 mmHg 72%
    22:00 +12°C° 0 mm 2 mps 754 mmHg 74%
    23:00 +12°C° 0 mm 2 mps 754 mmHg 76%

    24 August, Friday

    Time Temperature Precipitation Wind Pressure Humidity
    00:00 +12°C° 0 mm 2 mps 754 mmHg 78%
    01:00 +11°C° 0 mm 3 mps 754 mmHg 78%
    02:00 +11°C° 0 mm 3 mps 754 mmHg 79%
    03:00 +11°C° 0 mm 3 mps 754 mmHg 79%
    04:00 +11°C° 0 mm 3 mps 755 mmHg 79%
    05:00 +11°C° 0 mm 3 mps 755 mmHg 79%
    06:00 +11°C° 0 mm 3 mps 755 mmHg 78%
    07:00 +13°C° 0 mm 3 mps 755 mmHg 73%
    08:00 +15°C° 0 mm 4 mps 755 mmHg 68%
    09:00 +18°C° 0 mm 4 mps 755 mmHg 62%
    10:00 +20°C° 0 mm 4 mps 755 mmHg 58%
    11:00 +21°C° 0 mm 4 mps 755 mmHg 54%
    12:00 +23°C° 0 mm 4 mps 754 mmHg 50%
    13:00 +23°C° 0 mm 4 mps 754 mmHg 50%
    14:00 +25°C° 0 mm 4 mps 754 mmHg 50%
    15:00 +25°C° 0 mm 4 mps 754 mmHg 50%
    16:00 +24°C° 0 mm 3 mps 754 mmHg 56%
    17:00 +23°C° 0 mm 2 mps 754 mmHg 61%
    18:00 +21°C° 0 mm 2 mps 754 mmHg 67%
    19:00 +19°C° 0 mm 2 mps 754 mmHg 73%
    20:00 +18°C° 0 mm 2 mps 754 mmHg 78%
    21:00 +16°C° 0 mm 2 mps 754 mmHg 83%
    22:00 +16°C° 0 mm 2 mps 754 mmHg 85%
    23:00 +15°C° 0 mm 2 mps 754 mmHg 87%
    Show more